Location: Andiroba
(19.8650°S, 43.9258°W)
Time: 00:09:06
(UTC+00:00)

Cosmos 220 Rocket - Pass Details

Date: 15 June 2024
Orbit: 560 x 595 km, 74.0° (Epoch: 24 July)

Event Time Altitude Azimuth Distance (km) Brightness Sun altitude
Rises 08:21:22 0° 343° (NNW) 2,734 7.4 -15.4°
Reaches altitude 10° 08:23:32 10° 340° (NNW) 1,848 6.5 -14.9°
Maximum altitude 08:27:38 72° 256° (WSW) 602 3.8 -14.0°
Drops below altitude 10° 08:31:50 10° 171° (S) 1,889 6.4 -13.1°
Sets 08:34:04 0° 169° (SSE) 2,799 7.3 -12.6°
